Location: Altenst�hlen
(53.5567°N, 8.9425°E)
Time: 08:10:57
(UTC+00:00)

Cosmos 1763 Rocket - Pass Details

Date: 23 October 2019
Orbit: 733 x 780 km, 74.0° (Epoch: 11 November)

Event Time Altitude Azimuth Distance (km) Brightness Sun altitude
Rises 18:39:37 0° 194° (SSW) 3,251 6.8 -22.7°
Reaches altitude 10° 18:42:01 10° 192° (SSW) 2,325 6.0 -23.0°
Maximum altitude 18:47:14 65° 111° (ESE) 852 3.4 -23.8°
Enters shadow 18:47:28 64° 96° (E) 857 3.4 -23.8°
